This is the latest recevied weather packets stored in our database for station/object N5COP-13. If no packets are shown the sender has not sent any weather packets the latest 10 day(s).
| Time | Temp. | Humidity | Pressure | Rain* | Wind** | Luminosity | Snow |
|---|---|---|---|---|---|---|---|
| 1777512487 | 16.67° C | 39% | 1015.3 hPa | 0 mm | - | 6 W/m² | - |
| 1777512184 | 16.67° C | 39% | 1015.2 hPa | 0 mm | - | 10 W/m² | - |
| 1777511881 | 17.22° C | 39% | 1015.2 hPa | 0 mm | - | 15 W/m² | - |
| 1777511579 | 17.22° C | 38% | 1015 hPa | 0 mm | - | 19 W/m² | - |
| 1777511276 | 17.78° C | 38% | 1015 hPa | 0 mm | - | 25 W/m² | - |
| 1777510972 | 17.78° C | 38% | 1015 hPa | 0 mm | - | 30 W/m² | - |
| 1777510669 | 17.78° C | 37% | 1015.3 hPa | 0 mm | - | 36 W/m² | - |
| 1777510365 | 18.33° C | 36% | 1015.2 hPa | 0 mm | - | 42 W/m² | - |
| 1777510061 | 18.89° C | 36% | 1015 hPa | 0 mm | - | 50 W/m² | - |
| 1777509758 | 18.89° C | 35% | 1014.9 hPa | 0 mm | - | 58 W/m² | - |
| 1777509453 | 19.44° C | 34% | 1015.1 hPa | 0 mm | - | 67 W/m² | - |
| 1777509152 | 19.44° C | 33% | 1015.2 hPa | 0 mm | - | 76 W/m² | - |
| 1777508848 | 19.44° C | 33% | 1015.2 hPa | 0 mm | - | 86 W/m² | - |
| 1777508545 | 20° C | 33% | 1015.3 hPa | 0 mm | - | 95 W/m² | - |
| 1777508242 | 20° C | 33% | 1015.3 hPa | 0 mm | - | 107 W/m² | - |
| 1777507940 | 20° C | 32% | 1015.3 hPa | 0 mm | - | 121 W/m² | - |
| 1777507636 | 20° C | 32% | 1015.2 hPa | 0 mm | - | 134 W/m² | - |
| 1777507333 | 20° C | 32% | 1015.2 hPa | 0 mm | - | 150 W/m² | - |
| 1777507030 | 20° C | 32% | 1015.2 hPa | 0 mm | - | 167 W/m² | - |
| 1777506728 | 20° C | 32% | 1015.1 hPa | 0 mm | - | 176 W/m² | - |
| 1777506424 | 20° C | 32% | 1015.1 hPa | 0 mm | - | 191 W/m² | - |
| 1777506120 | 20.56° C | 31% | 1015.1 hPa | 0 mm | - | 209 W/m² | - |
| 1777505815 | 20.56° C | 31% | 1015 hPa | 0 mm | - | 224 W/m² | - |
| 1777505512 | 20.56° C | 31% | 1014.9 hPa | 0 mm | - | 238 W/m² | - |
| 1777505209 | 20.56° C | 30% | 1014.9 hPa | 0 mm | - | 255 W/m² | - |
* Rain latest hour (hover to see other rain measurements)
** Current wind speed in m/s (hover to see current wind gust speed)